Weather History for Monterey, CA

Change the Weather History Date:

Tuesday, January 1, 2013

  Actual Average Record
Temperature  
Mean Temperature 49 °F 51 °F  
Max Temperature 58 °F 60 °F 73 °F (2008)
Min Temperature 39 °F 42 °F 37 °F (2001)
Degree Days  
Heating Degree Days 16    
Month to date heating degree days 16  
Since 1 July heating degree days 1374  
Cooling Degree Days 0    
Month to date cooling degree days 0  
Year to date cooling degree days 0  
Moisture  
Dew Point 34 °F    
Average Humidity 62    
Maximum Humidity 85    
Minimum Humidity 39    
Precipitation  
Precipitation 0.00 in - 0.69 in (2006)
Month to date precipitation 0.00  
Year to date precipitation 0.00  
Since 1 July precipitation 8.24  
Sea Level Pressure  
Sea Level Pressure 30.25 in    
Wind  
Wind Speed 5 mph (ENE)    
Max Wind Speed 14 mph    
Max Gust Speed 39 mph    
Visibility 10 miles    
Events      
T = Trace of Precipitation, MM = Missing Value Source: NWS Daily Summary

Daily Weather History Graph

Daily Weather History Graph

Search for Another Location

Airport:

Trip Planner

Search our weather history database for the weather conditions in past years. The results will help you decide how hot, cold, wet, or windy it might be!

Date:

Astronomy

Jan. 01, 2013 Rise Set
Actual Time 7:19 AM PST 5:02 PM PST
Civil Twilight 6:50 AM PST 5:31 PM PST
Nautical Twilight 6:18 AM PST 6:03 PM PST
Astronomical Twilight 5:47 AM PST 6:35 PM PST
Moon 9:31 PM PST (1/1) 9:41 AM PST (1/1)
Length of Visible Light 10h 40m
Length of Day
9h 43m
Waning Gibbous, 82% of the Moon is Illuminated
Jan 1
Waning Gibbous
Jan 4
Last Quarter
Jan 11
New
Jan 18
First Quarter
Jan 26
Full

Hourly Weather History & Observations

Time (PST) Temp. Windchill Dew Point Humidity Pressure Visibility Wind Dir Wind Speed Gust Speed Precip Events Conditions
12:54 AM 41.0 °F - 32.0 °F 70% 30.28 in 10.0 mi Calm Calm - N/A   Clear
1:54 AM 39.0 °F 36.8 °F 32.0 °F 76% 30.28 in 10.0 mi East 3.5 mph - N/A   Clear
4:54 AM 41.0 °F 37.1 °F 34.0 °F 76% 30.26 in 10.0 mi East 5.8 mph - N/A   Overcast
5:54 AM 42.1 °F - 33.1 °F 70% 30.27 in 10.0 mi Calm Calm - N/A   Overcast
6:25 AM 42.8 °F 41.1 °F 33.8 °F 70% 30.24 in 10.0 mi ENE 3.5 mph - N/A   Overcast
6:38 AM 42.8 °F 41.1 °F 33.8 °F 70% 30.24 in 10.0 mi ENE 3.5 mph - N/A   Overcast
6:54 AM 42.1 °F 36.6 °F 34.0 °F 73% 30.27 in 10.0 mi East 9.2 mph - N/A   Overcast
7:54 AM 41.0 °F 35.2 °F 33.1 °F 73% 30.26 in 10.0 mi East 9.2 mph - N/A   Clear
8:54 AM 48.0 °F - 35.1 °F 61% 30.27 in 10.0 mi Calm Calm - N/A   Clear
9:54 AM 52.0 °F - 34.0 °F 50% 30.27 in 10.0 mi NW 5.8 mph - N/A   Clear
10:54 AM 52.0 °F - 32.0 °F 47% 30.27 in 10.0 mi NE 9.2 mph - N/A   Clear
11:54 AM 52.0 °F - 35.1 °F 53% 30.25 in 10.0 mi North 11.5 mph - N/A   Clear
12:54 PM 55.0 °F - 33.1 °F 43% 30.22 in 10.0 mi NE 10.4 mph 16.1 mph N/A   Clear
1:54 PM 57.0 °F - 32.0 °F 39% 30.19 in 10.0 mi NE 6.9 mph - N/A   Clear
2:54 PM 57.0 °F - 32.0 °F 39% 30.19 in 10.0 mi NNE 9.2 mph - N/A   Clear
3:54 PM 55.0 °F - 36.0 °F 49% 30.21 in 10.0 mi Variable 3.5 mph - N/A   Clear
4:54 PM 50.0 °F - 36.0 °F 59% 30.21 in 10.0 mi NNE 3.5 mph - N/A   Clear
5:54 PM 46.9 °F - 37.0 °F 68% 30.23 in 10.0 mi NNE 3.5 mph - N/A   Clear
6:54 PM 45.0 °F 41.8 °F 36.0 °F 71% 30.26 in 10.0 mi East 5.8 mph - N/A   Clear
7:54 PM 43.0 °F - 35.1 °F 74% 30.27 in 10.0 mi Calm Calm - N/A   Clear
8:54 PM 39.9 °F 37.8 °F 35.1 °F 83% 30.27 in 10.0 mi SE 3.5 mph - N/A   Clear
9:54 PM 41.0 °F 36.4 °F 35.1 °F 79% 30.27 in 10.0 mi East 6.9 mph - N/A   Clear
10:54 PM 44.1 °F 39.5 °F 34.0 °F 68% 30.26 in 10.0 mi East 8.1 mph - N/A   Clear
11:54 PM 43.0 °F 37.2 °F 33.1 °F 68% 30.25 in 10.0 mi East 10.4 mph - N/A   Clear